| time (UTC) | temp F | wind direction | speed MPH | gust MPH | rain 1hr in | rain 24hr in | rain mn in | humidity % | barometer mb |
| 20260508090734 | 65 | 116 | 2.0 | 4.0 | 0.00 | 1.21 | 0.00 | 90 | 1013.9 |
| 20260508090234 | 65 | 75 | 2.0 | 4.0 | 0.00 | 1.21 | 0.00 | 90 | 1013.8 |
| 20260508085734 | 65 | 91 | 1.0 | 5.0 | 0.00 | 1.21 | 0.00 | 90 | 1013.8 |
| 20260508085234 | 65 | 103 | 2.0 | 5.0 | 0.00 | 1.21 | 0.00 | 90 | 1013.8 |
| 20260508084733 | 65 | 87 | 1.0 | 4.0 | 0.00 | 1.21 | 0.00 | 90 | 1014.1 |
| 20260508084234 | 65 | 42 | 1.0 | 3.0 | 0.00 | 1.21 | 0.00 | 90 | 1014.1 |
| 20260508083733 | 64 | 44 | 1.0 | 4.0 | 0.00 | 1.21 | 0.00 | 90 | 1013.9 |
| 20260508083504 | 65 | 53 | 1.0 | 4.0 | 0.00 | 1.21 | 0.00 | 90 | 1013.9 |
| 20260508082733 | 65 | 71 | 1.0 | 4.0 | 0.00 | 1.21 | 0.00 | 90 | 1013.7 |
| 20260508082234 | 65 | 86 | 2.0 | 6.0 | 0.00 | 1.21 | 0.00 | 90 | 1013.7 |
| 20260508081733 | 65 | 46 | 2.0 | 6.0 | 0.00 | 1.21 | 0.00 | 90 | 1013.6 |
| 20260508081504 | 65 | 44 | 2.0 | 4.0 | 0.00 | 1.21 | 0.00 | 90 | 1013.6 |
| 20260508080733 | 65 | 57 | 1.0 | 4.0 | 0.00 | 1.21 | 0.00 | 90 | 1013.8 |
| 20260508080234 | 65 | 75 | 1.0 | 5.0 | 0.00 | 1.21 | 0.00 | 90 | 1013.8 |
| 20260508075738 | 64 | 82 | 2.0 | 5.0 | 0.00 | 1.21 | 0.00 | 90 | 1013.8 |
| 20260508075733 | 65 | 41 | 2.0 | 5.0 | 0.00 | 1.21 | 0.00 | 90 | 1013.8 |
| 20260508074734 | 64 | 72 | 1.0 | 4.0 | 0.00 | 1.21 | 0.00 | 91 | 1013.8 |
| 20260508074233 | 64 | 58 | 1.0 | 3.0 | 0.00 | 1.21 | 0.00 | 91 | 1013.8 |
| 20260508073734 | 64 | 94 | 2.0 | 5.0 | 0.00 | 1.21 | 0.00 | 91 | 1013.9 |
| 20260508073233 | 64 | 56 | 2.0 | 5.0 | 0.00 | 1.21 | 0.00 | 91 | 1013.8 |
| 20260508072734 | 64 | 38 | 2.0 | 3.0 | 0.00 | 1.21 | 0.00 | 91 | 1013.9 |
| 20260508072234 | 64 | 77 | 1.0 | 2.0 | 0.00 | 1.21 | 0.00 | 91 | 1013.9 |
| 20260508071733 | 64 | 53 | 1.0 | 3.0 | 0.00 | 1.21 | 0.00 | 90 | 1014.1 |
| 20260508071234 | 64 | 79 | 1.0 | 3.0 | 0.00 | 1.21 | 0.00 | 90 | 1014.2 |
| 20260508070734 | 65 | 63 | 0.0 | 2.0 | 0.00 | 1.21 | 0.00 | 90 | 1014.2 |
| 20260508070231 | 65 | 63 | 1.0 | 3.0 | 0.00 | 1.21 | 0.00 | 90 | 1014.2 |
| 20260508065736 | 65 | 49 | 1.0 | 3.0 | 0.00 | 1.21 | 0.00 | 90 | 1014.0 |
| 20260508065732 | 65 | 62 | 1.0 | 3.0 | 0.00 | 1.21 | 0.00 | 90 | 1014.1 |
| 20260508064731 | 65 | 37 | 1.0 | 3.0 | 0.00 | 1.21 | 0.00 | 90 | 1014.1 |
| 20260508064232 | 65 | 63 | 1.0 | 3.0 | 0.00 | 1.21 | 0.00 | 90 | 1014.2 |
| 20260508063731 | 65 | 69 | 1.0 | 4.0 | 0.00 | 1.21 | 0.00 | 90 | 1014.0 |
| 20260508063502 | 65 | 340 | 2.0 | 4.0 | 0.00 | 1.21 | 0.00 | 89 | 1014.2 |
| 20260508062732 | 65 | 50 | 1.0 | 3.0 | 0.00 | 1.21 | 0.00 | 89 | 1014.3 |
| 20260508062231 | 65 | 40 | 1.0 | 4.0 | 0.00 | 1.21 | 0.00 | 89 | 1014.5 |
| 20260508061732 | 65 | 59 | 1.0 | 4.0 | 0.00 | 1.21 | 0.00 | 89 | 1014.5 |
| 20260508061231 | 65 | 56 | 1.0 | 4.0 | 0.00 | 1.21 | 0.00 | 89 | 1014.5 |
| 20260508060731 | 65 | 49 | 1.0 | 4.0 | 0.00 | 1.21 | 0.00 | 89 | 1014.7 |
| 20260508060232 | 65 | 75 | 1.0 | 3.0 | 0.00 | 1.21 | 0.00 | 89 | 1014.7 |
| 20260508055731 | 65 | 41 | 1.0 | 4.0 | 0.00 | 1.21 | 0.00 | 89 | 1014.7 |
| 20260508055232 | 65 | 53 | 1.0 | 4.0 | 0.00 | 1.21 | 0.00 | 89 | 1014.8 |
| 20260508054731 | 66 | 359 | 1.0 | 2.0 | 0.00 | 1.21 | 0.00 | 89 | 1014.8 |
| 20260508054503 | 66 | 58 | 1.0 | 4.0 | 0.00 | 1.21 | 0.00 | 89 | 1014.6 |
| 20260508054002 | 66 | 61 | 1.0 | 4.0 | 0.00 | 1.21 | 0.00 | 89 | 1014.6 |
| 20260508053231 | 66 | 93 | 1.0 | 3.0 | 0.00 | 1.21 | 0.00 | 89 | 1014.8 |
| 20260508052731 | 66 | 54 | 1.0 | 5.0 | 0.00 | 1.21 | 0.00 | 89 | 1014.7 |
| 20260508052232 | 66 | 65 | 1.0 | 5.0 | 0.00 | 1.21 | 0.00 | 89 | 1014.8 |
| 20260508051731 | 66 | 81 | 1.0 | 3.0 | 0.00 | 1.21 | 0.00 | 90 | 1014.9 |
| 20260508051231 | 66 | 58 | 1.0 | 3.0 | 0.00 | 1.21 | 0.00 | 90 | 1014.9 |
| 20260508050732 | 66 | 81 | 1.0 | 2.0 | 0.00 | 1.21 | 0.00 | 90 | 1014.8 |
| 20260508050502 | 66 | 82 | 0.0 | 2.0 | 0.00 | 1.21 | 0.00 | 90 | 1014.9 |
| 20260508045732 | 66 | 60 | 0.0 | 3.0 | 0.00 | 1.21 | 1.21 | 90 | 1014.9 |
| 20260508045230 | 66 | 65 | 1.0 | 5.0 | 0.00 | 1.21 | 1.21 | 90 | 1015.2 |
| 20260508044730 | 66 | 65 | 1.0 | 5.0 | 0.00 | 1.21 | 1.21 | 90 | 1015.3 |
| 20260508044230 | 66 | 49 | 1.0 | 3.0 | 0.00 | 1.21 | 1.21 | 90 | 1015.1 |
| 20260508043729 | 66 | 49 | 1.0 | 3.0 | 0.00 | 1.21 | 1.21 | 90 | 1014.9 |
| 20260508043230 | 66 | 316 | 0.0 | 3.0 | 0.00 | 1.21 | 1.21 | 90 | 1014.9 |
| 20260508043002 | 67 | 303 | 1.0 | 3.0 | 0.00 | 1.21 | 1.21 | 90 | 1014.8 |
| 20260508042230 | 67 | 60 | 1.0 | 3.0 | 0.00 | 1.21 | 1.21 | 90 | 1014.8 |
| 20260508041730 | 67 | 51 | 2.0 | 5.0 | 0.00 | 1.21 | 1.21 | 89 | 1014.5 |
| 20260508041230 | 67 | 60 | 2.0 | 5.0 | 0.00 | 1.21 | 1.21 | 89 | 1014.4 |
| 20260508040730 | 67 | 72 | 2.0 | 5.0 | 0.00 | 1.21 | 1.21 | 89 | 1014.6 |
| 20260508040227 | 67 | 32 | 2.0 | 6.0 | 0.00 | 1.21 | 1.21 | 89 | 1014.6 |
| 20260508035728 | 67 | 118 | 2.0 | 6.0 | 0.00 | 1.21 | 1.21 | 89 | 1014.5 |
| 20260508035228 | 67 | 56 | 3.0 | 9.0 | 0.00 | 1.21 | 1.21 | 90 | 1014.3 |
| 20260508034728 | 68 | 48 | 3.0 | 9.0 | 0.00 | 1.21 | 1.21 | 90 | 1014.4 |
| 20260508034500 | 68 | 57 | 2.0 | 7.0 | 0.00 | 1.21 | 1.21 | 90 | 1014.3 |
| 20260508033728 | 68 | 50 | 2.0 | 4.0 | 0.00 | 1.21 | 1.21 | 90 | 1014.5 |
| 20260508033228 | 68 | 330 | 2.0 | 4.0 | 0.00 | 1.21 | 1.21 | 89 | 1014.7 |
| 20260508032728 | 68 | 54 | 1.0 | 5.0 | 0.00 | 1.21 | 1.21 | 89 | 1014.8 |
| 20260508032228 | 68 | 54 | 1.0 | 6.0 | 0.00 | 1.21 | 1.21 | 89 | 1014.8 |
| 20260508031726 | 69 | 73 | 2.0 | 6.0 | 0.00 | 1.21 | 1.21 | 89 | 1015.0 |
| 20260508031226 | 69 | 27 | 1.0 | 5.0 | 0.00 | 1.21 | 1.21 | 89 | 1015.1 |
| 20260508030726 | 69 | 302 | 1.0 | 3.0 | 0.00 | 1.21 | 1.21 | 89 | 1015.1 |
| 20260508030226 | 69 | 84 | 1.0 | 5.0 | 0.00 | 1.21 | 1.21 | 88 | 1015.2 |
| 20260508025725 | 69 | 34 | 2.0 | 5.0 | 0.00 | 1.21 | 1.21 | 88 | 1015.1 |
| 20260508025226 | 69 | 77 | 2.0 | 5.0 | 0.00 | 1.21 | 1.21 | 88 | 1015.1 |
| 20260508024727 | 70 | 73 | 2.0 | 5.0 | 0.00 | 1.21 | 1.21 | 88 | 1015.2 |
| 20260508024226 | 70 | 285 | 2.0 | 4.0 | 0.00 | 1.21 | 1.21 | 88 | 1015.1 |
| 20260508023726 | 70 | 347 | 1.0 | 4.0 | 0.00 | 1.21 | 1.21 | 88 | 1014.9 |
| 20260508023225 | 70 | 81 | 1.0 | 4.0 | 0.00 | 1.21 | 1.21 | 88 | 1014.7 |
| 20260508022724 | 70 | 319 | 1.0 | 5.0 | 0.00 | 1.21 | 1.21 | 88 | 1014.8 |
| 20260508022224 | 71 | 44 | 2.0 | 5.0 | 0.00 | 1.21 | 1.21 | 88 | 1014.8 |
| 20260508021724 | 71 | 328 | 2.0 | 5.0 | 0.00 | 1.21 | 1.21 | 88 | 1014.8 |
| 20260508021229 | 71 | 30 | 1.0 | 5.0 | 0.00 | 1.21 | 1.21 | 88 | 1014.6 |
| 20260508020724 | 71 | 276 | 1.0 | 5.0 | 0.00 | 1.21 | 1.21 | 88 | 1014.5 |
| 20260508020224 | 71 | 20 | 1.0 | 5.0 | 0.00 | 1.21 | 1.21 | 88 | 1014.5 |
| 20260508015723 | 71 | 25 | 1.0 | 3.0 | 0.00 | 1.21 | 1.21 | 87 | 1014.4 |
| 20260508015224 | 72 | 73 | 1.0 | 3.0 | 0.00 | 1.21 | 1.21 | 87 | 1014.3 |
| 20260508014724 | 72 | 65 | 1.0 | 3.0 | 0.00 | 1.21 | 1.21 | 87 | 1014.1 |
| 20260508014455 | 72 | 323 | 0.0 | 1.0 | 0.00 | 1.21 | 1.21 | 87 | 1014.1 |
| 20260508013723 | 72 | 71 | 0.0 | 4.0 | 0.00 | 1.21 | 1.21 | 86 | 1014.0 |
| 20260508013222 | 72 | 71 | 0.0 | 4.0 | 0.00 | 1.21 | 1.21 | 86 | 1013.7 |
| 20260508012722 | 72 | 72 | 1.0 | 2.0 | 0.00 | 1.21 | 1.21 | 86 | 1013.6 |
| 20260508012222 | 72 | 77 | 1.0 | 3.0 | 0.00 | 1.21 | 1.21 | 86 | 1013.5 |
| 20260508011722 | 72 | 75 | 1.0 | 3.0 | 0.00 | 1.21 | 1.21 | 86 | 1013.4 |
| 20260508011222 | 72 | 245 | 1.0 | 4.0 | 0.00 | 1.21 | 1.21 | 86 | 1013.2 |
| 20260508010722 | 72 | 51 | 1.0 | 4.0 | 0.00 | 1.21 | 1.21 | 86 | 1013.2 |
| 20260508010220 | 73 | 33 | 1.0 | 3.0 | 0.00 | 1.21 | 1.21 | 86 | 1013.1 |
| 20260508005720 | 73 | 316 | 1.0 | 4.0 | 0.00 | 1.21 | 1.21 | 86 | 1013.2 |
| 20260508005451 | 73 | 79 | 1.0 | 4.0 | 0.00 | 1.21 | 1.21 | 86 | 1013.2 |
| 20260508004720 | 73 | 75 | 1.0 | 3.0 | 0.00 | 1.21 | 1.21 | 86 | 1013.2 |
| 20260508004220 | 73 | 56 | 1.0 | 3.0 | 0.00 | 1.21 | 1.21 | 85 | 1013.3 |
| 20260508003718 | 74 | 351 | 0.0 | 3.0 | 0.00 | 1.21 | 1.21 | 84 | 1013.4 |
| 20260508003218 | 74 | 345 | 1.0 | 3.0 | 0.00 | 1.21 | 1.21 | 84 | 1013.3 |
| 20260508002718 | 74 | 237 | 0.0 | 2.0 | 0.00 | 1.21 | 1.21 | 84 | 1013.4 |
| 20260508002218 | 74 | 11 | 1.0 | 2.0 | 0.00 | 1.21 | 1.21 | 83 | 1013.3 |
| 20260508001718 | 74 | 319 | 1.0 | 3.0 | 0.00 | 1.21 | 1.21 | 83 | 1013.3 |
| 20260508001218 | 74 | 13 | 1.0 | 3.0 | 0.00 | 1.21 | 1.21 | 83 | 1013.2 |
| 20260508000948 | 74 | 51 | 1.0 | 2.0 | 0.00 | 1.21 | 1.21 | 83 | 1013.1 |
| 20260508000219 | 75 | 319 | 0.0 | 3.0 | 0.00 | 1.21 | 1.21 | 82 | 1013.2 |
| 20260507235718 | 75 | 338 | 1.0 | 3.0 | 0.00 | 1.21 | 1.21 | 82 | 1013.1 |
| 20260507235218 | 75 | 65 | 1.0 | 4.0 | 0.00 | 1.21 | 1.21 | 82 | 1013.0 |
| 20260507234716 | 75 | 58 | 1.0 | 4.0 | 0.00 | 1.21 | 1.21 | 82 | 1013.0 |
| 20260507234448 | 75 | 37 | 1.0 | 3.0 | 0.00 | 1.21 | 1.21 | 82 | 1012.9 |
| 20260507233714 | 75 | 65 | 1.0 | 5.0 | 0.00 | 1.21 | 1.21 | 82 | 1013.0 |
| 20260507233214 | 76 | 334 | 2.0 | 5.0 | 0.00 | 1.21 | 1.21 | 81 | 1013.0 |
| 20260507232714 | 76 | 357 | 1.0 | 4.0 | 0.00 | 1.21 | 1.21 | 81 | 1013.0 |
| 20260507232214 | 76 | 332 | 1.0 | 3.0 | 0.00 | 1.21 | 1.21 | 81 | 1013.0 |
| 20260507231714 | 76 | 64 | 1.0 | 4.0 | 0.00 | 1.21 | 1.21 | 81 | 1013.1 |
| 20260507231444 | 76 | 13 | 1.0 | 5.0 | 0.00 | 1.21 | 1.21 | 81 | 1013.1 |
| 20260507230714 | 76 | 35 | 1.0 | 5.0 | 0.00 | 1.21 | 1.21 | 81 | 1013.1 |
| 20260507230446 | 77 | 355 | 1.0 | 2.0 | 0.00 | 1.21 | 1.21 | 81 | 1013.1 |
| 20260507225714 | 77 | 58 | 1.0 | 3.0 | 0.00 | 1.21 | 1.21 | 81 | 1012.9 |
| 20260507225213 | 77 | 359 | 1.0 | 5.0 | 0.00 | 1.21 | 1.21 | 81 | 1012.8 |
| 20260507224714 | 77 | 96 | 1.0 | 5.0 | 0.00 | 1.21 | 1.21 | 80 | 1012.8 |
| 20260507224214 | 77 | 8 | 2.0 | 5.0 | 0.00 | 1.21 | 1.21 | 80 | 1012.7 |
| 20260507223712 | 77 | 342 | 2.0 | 5.0 | 0.00 | 1.21 | 1.21 | 79 | 1012.8 |
| 20260507223444 | 77 | 13 | 1.0 | 4.0 | 0.00 | 1.21 | 1.21 | 79 | 1012.8 |
| 20260507222942 | 77 | 56 | 1.0 | 4.0 | 0.00 | 1.21 | 1.21 | 79 | 1012.6 |
| 20260507222211 | 78 | 352 | 2.0 | 7.0 | 0.00 | 1.21 | 1.21 | 80 | 1012.8 |
| 20260507221712 | 78 | 14 | 2.0 | 7.0 | 0.00 | 1.21 | 1.21 | 80 | 1012.8 |
| 20260507221212 | 78 | 53 | 2.0 | 5.0 | 0.00 | 1.21 | 1.21 | 80 | 1012.9 |
| 20260507220711 | 78 | 34 | 2.0 | 5.0 | 0.00 | 1.21 | 1.21 | 79 | 1012.8 |
| 20260507220210 | 78 | 49 | 1.0 | 6.0 | 0.00 | 1.21 | 1.21 | 80 | 1012.8 |
| 20260507215710 | 78 | 251 | 2.0 | 6.0 | 0.00 | 1.21 | 1.21 | 79 | 1012.8 |
| 20260507215210 | 78 | 191 | 2.0 | 7.0 | 0.00 | 1.21 | 1.21 | 80 | 1012.7 |
| 20260507214710 | 78 | 314 | 1.0 | 7.0 | 0.00 | 1.21 | 1.21 | 79 | 1012.7 |
| 20260507214209 | 79 | 342 | 2.0 | 5.0 | 0.00 | 1.21 | 1.21 | 79 | 1012.7 |
| 20260507213710 | 78 | 79 | 2.0 | 5.0 | 0.00 | 1.21 | 1.21 | 80 | 1012.8 |
| 20260507213208 | 78 | 326 | 1.0 | 6.0 | 0.00 | 1.21 | 1.21 | 80 | 1012.8 |
| 20260507212708 | 78 | 347 | 2.0 | 6.0 | 0.00 | 1.21 | 1.21 | 81 | 1012.7 |
| 20260507212208 | 78 | 25 | 2.0 | 5.0 | 0.00 | 1.21 | 1.21 | 81 | 1012.7 |
| 20260507211708 | 78 | 310 | 2.0 | 5.0 | 0.00 | 1.21 | 1.21 | 80 | 1012.7 |
| 20260507211206 | 79 | 340 | 1.0 | 5.0 | 0.00 | 1.21 | 1.21 | 79 | 1012.6 |
| 20260507210706 | 80 | 257 | 1.0 | 4.0 | 0.00 | 1.21 | 1.21 | 78 | 1012.6 |
| 20260507210206 | 80 | 264 | 1.0 | 4.0 | 0.00 | 1.21 | 1.21 | 79 | 1012.6 |
| 20260507205706 | 81 | 274 | 2.0 | 4.0 | 0.00 | 1.21 | 1.21 | 77 | 1012.7 |
| 20260507205206 | 81 | 231 | 1.0 | 4.0 | 0.00 | 1.22 | 1.21 | 77 | 1012.7 |
| 20260507204935 | 82 | 301 | 1.0 | 3.0 | 0.00 | 1.22 | 1.21 | 78 | 1012.6 |
| 20260507204435 | 81 | 334 | 1.0 | 3.0 | 0.00 | 1.22 | 1.21 | 76 | 1012.6 |
| 20260507203934 | 81 | 257 | 1.0 | 3.0 | 0.00 | 1.22 | 1.21 | 79 | 1012.5 |
| 20260507203203 | 81 | 248 | 1.0 | 3.0 | 0.00 | 1.22 | 1.21 | 79 | 1012.5 |
| 20260507202704 | 80 | 328 | 1.0 | 3.0 | 0.00 | 1.22 | 1.21 | 77 | 1012.6 |
| 20260507202204 | 81 | 347 | 0.0 | 3.0 | 0.00 | 1.22 | 1.21 | 80 | 1012.5 |
| 20260507201704 | 80 | 266 | 0.0 | 2.0 | 0.00 | 1.22 | 1.21 | 80 | 1012.5 |
| 20260507201204 | 79 | 301 | 0.0 | 2.0 | 0.00 | 1.22 | 1.21 | 81 | 1012.6 |
| 20260507200704 | 79 | 317 | 1.0 | 3.0 | 0.00 | 1.22 | 1.21 | 82 | 1012.5 |
| 20260507200204 | 79 | 58 | 1.0 | 4.0 | 0.00 | 1.22 | 1.21 | 81 | 1012.8 |
| 20260507195936 | 79 | 321 | 1.0 | 4.0 | 0.00 | 1.22 | 1.21 | 84 | 1013.0 |
| 20260507195204 | 78 | 75 | 0.0 | 2.0 | 0.00 | 1.22 | 1.21 | 85 | 1012.9 |
| 20260507194702 | 78 | 105 | 0.0 | 2.0 | 0.00 | 1.22 | 1.21 | 86 | 1012.8 |
| 20260507194202 | 77 | 74 | 1.0 | 3.0 | 0.00 | 1.22 | 1.21 | 86 | 1012.9 |
| 20260507193701 | 76 | 85 | 1.0 | 3.0 | 0.00 | 1.22 | 1.21 | 87 | 1012.9 |
| 20260507193201 | 77 | 319 | 1.0 | 2.0 | 0.00 | 1.22 | 1.21 | 87 | 1013.1 |
| 20260507192700 | 76 | 18 | 1.0 | 2.0 | 0.00 | 1.22 | 1.21 | 89 | 1013.2 |
| 20260507192200 | 75 | 120 | 1.0 | 3.0 | 0.00 | 1.26 | 1.21 | 90 | 1013.3 |
| 20260507191702 | 74 | 46 | 0.0 | 1.0 | 0.00 | 1.44 | 1.21 | 91 | 1013.3 |
| 20260507191658 | 75 | 82 | 0.0 | 3.0 | 0.00 | 1.35 | 1.21 | 91 | 1013.3 |
| 20260507190658 | 74 | 46 | 1.0 | 2.0 | 0.00 | 1.46 | 1.21 | 92 | 1013.4 |
| 20260507190157 | 74 | 46 | 1.0 | 2.0 | 0.00 | 1.48 | 1.21 | 93 | 1013.4 |
| 20260507185656 | 73 | 40 | 0.0 | 2.0 | 0.00 | 1.54 | 1.21 | 94 | 1013.2 |
| 20260507185157 | 73 | 65 | 1.0 | 3.0 | 0.00 | 1.56 | 1.21 | 93 | 1013.1 |
| 20260507184656 | 72 | 65 | 1.0 | 3.0 | 0.00 | 1.60 | 1.21 | 93 | 1013.2 |
| 20260507184156 | 72 | 60 | 0.0 | 2.0 | 0.00 | 1.60 | 1.21 | 94 | 1013.2 |
| 20260507183654 | 72 | 60 | 0.0 | 2.0 | 0.00 | 1.61 | 1.21 | 94 | 1013.5 |
| 20260507183153 | 71 | 351 | 1.0 | 3.0 | 0.00 | 1.61 | 1.21 | 94 | 1013.6 |
| 20260507182925 | 71 | 38 | 1.0 | 4.0 | 0.00 | 1.61 | 1.21 | 93 | 1013.5 |
| 20260507182154 | 71 | 66 | 1.0 | 4.0 | 0.00 | 1.62 | 1.21 | 94 | 1013.5 |
| 20260507181654 | 71 | 324 | 2.0 | 5.0 | 0.01 | 1.64 | 1.21 | 94 | 1013.6 |
| 20260507181153 | 71 | 40 | 2.0 | 5.0 | 0.01 | 1.64 | 1.21 | 93 | 1013.7 |
| 20260507180652 | 71 | 46 | 2.0 | 4.0 | 0.01 | 1.65 | 1.21 | 93 | 1013.9 |
| 20260507180152 | 71 | 352 | 2.0 | 5.0 | 0.01 | 1.65 | 1.21 | 93 | 1013.8 |
| 20260507175651 | 71 | 49 | 3.0 | 6.0 | 0.01 | 1.65 | 1.21 | 93 | 1014.0 |
| 20260507175151 | 72 | 91 | 3.0 | 6.0 | 0.01 | 1.65 | 1.21 | 93 | 1013.9 |
| 20260507174652 | 72 | 42 | 3.0 | 9.0 | 0.01 | 1.65 | 1.21 | 93 | 1014.1 |
| 20260507174152 | 72 | 301 | 3.0 | 9.0 | 0.02 | 1.65 | 1.21 | 93 | 1014.0 |
| 20260507173651 | 73 | 54 | 3.0 | 8.0 | 0.04 | 1.65 | 1.21 | 93 | 1014.1 |
| 20260507173152 | 73 | 18 | 3.0 | 5.0 | 0.05 | 1.65 | 1.21 | 93 | 1014.0 |
| 20260507172652 | 73 | 70 | 2.0 | 5.0 | 0.05 | 1.65 | 1.21 | 93 | 1014.1 |
| 20260507172422 | 73 | 358 | 1.0 | 5.0 | 0.05 | 1.65 | 1.21 | 93 | 1014.2 |
| 20260507171650 | 74 | 324 | 1.0 | 3.0 | 0.05 | 1.64 | 1.20 | 93 | 1014.2 |
| 20260507171148 | 74 | 251 | 1.0 | 2.0 | 0.07 | 1.64 | 1.20 | 94 | 1014.1 |
| 20260507170652 | 73 | 210 | 0.0 | 1.0 | 0.21 | 1.64 | 1.20 | 94 | 1014.1 |
| 20260507170648 | 74 | 272 | 0.0 | 2.0 | 0.14 | 1.64 | 1.20 | 94 | 1014.1 |
| 20260507165645 | 73 | 209 | 0.0 | 1.0 | 0.23 | 1.64 | 1.20 | 94 | 1014.1 |
| 20260507165146 | 73 | 209 | 0.0 | 1.0 | 0.27 | 1.64 | 1.20 | 94 | 1014.2 |
| 20260507164645 | 73 | 210 | 0.0 | 1.0 | 0.37 | 1.64 | 1.20 | 94 | 1014.1 |
| 20260507164146 | 73 | 209 | 0.0 | 1.0 | 0.36 | 1.63 | 1.20 | 93 | 1014.1 |
| 20260507163646 | 73 | 210 | 0.0 | 1.0 | 0.37 | 1.61 | 1.17 | 94 | 1014.3 |
| 20260507163146 | 73 | 210 | 0.0 | 1.0 | 0.36 | 1.60 | 1.17 | 94 | 1014.3 |
| 20260507162645 | 73 | 207 | 0.0 | 3.0 | 0.43 | 1.60 | 1.16 | 93 | 1014.2 |
| 20260507162146 | 72 | 215 | 1.0 | 3.0 | 0.52 | 1.60 | 1.16 | 93 | 1014.3 |
| 20260507161917 | 72 | 226 | 2.0 | 6.0 | 0.52 | 1.59 | 1.15 | 93 | 1014.4 |
| 20260507161143 | 72 | 205 | 1.0 | 6.0 | 0.50 | 1.57 | 1.13 | 93 | 1014.4 |
| 20260507160644 | 73 | 208 | 1.0 | 3.0 | 0.43 | 1.50 | 1.08 | 93 | 1014.4 |
| 20260507160143 | 73 | 231 | 1.0 | 5.0 | 0.36 | 1.43 | 1.00 | 93 | 1014.3 |
| 20260507155643 | 73 | 168 | 1.0 | 5.0 | 0.34 | 1.41 | 0.97 | 93 | 1014.1 |
| 20260507155142 | 73 | 210 | 1.0 | 4.0 | 0.30 | 1.37 | 0.93 | 93 | 1014.2 |
| 20260507154639 | 73 | 203 | 1.0 | 4.0 | 0.23 | 1.27 | 0.84 | 93 | 1014.4 |
| 20260507154140 | 73 | 215 | 1.0 | 4.0 | 0.30 | 1.27 | 0.83 | 93 | 1013.9 |
| 20260507153640 | 73 | 218 | 1.0 | 4.0 | 0.36 | 1.24 | 0.80 | 92 | 1014.0 |
| 20260507153139 | 73 | 262 | 1.0 | 4.0 | 0.46 | 1.24 | 0.80 | 92 | 1014.1 |
| 20260507152640 | 73 | 287 | 1.0 | 4.0 | 0.52 | 1.17 | 0.75 | 92 | 1014.0 |
| 20260507152411 | 74 | 322 | 0.0 | 2.0 | 0.61 | 1.08 | 0.64 | 93 | 1014.6 |
| 20260507151640 | 73 | 255 | 1.0 | 5.0 | 0.62 | 1.07 | 0.63 | 93 | 1013.8 |
| 20260507151140 | 73 | 234 | 1.0 | 5.0 | 0.63 | 1.07 | 0.63 | 92 | 1013.6 |
| 20260507150638 | 73 | 229 | 1.0 | 4.0 | 0.63 | 1.07 | 0.63 | 93 | 1013.8 |
| 20260507150138 | 73 | 319 | 1.0 | 4.0 | 0.63 | 1.07 | 0.63 | 93 | 1014.0 |
| 20260507145635 | 73 | 262 | 2.0 | 8.0 | 0.63 | 1.07 | 0.63 | 92 | 1014.1 |
| 20260507145136 | 73 | 171 | 2.0 | 8.0 | 0.63 | 1.08 | 0.63 | 92 | 1014.0 |
| 20260507144634 | 74 | 239 | 1.0 | 5.0 | 0.60 | 1.05 | 0.60 | 93 | 1013.7 |
| 20260507144133 | 74 | 212 | 2.0 | 4.0 | 0.53 | 0.98 | 0.54 | 93 | 1013.4 |
| 20260507143632 | 74 | 202 | 3.0 | 8.0 | 0.44 | 0.89 | 0.46 | 92 | 1013.6 |
| 20260507143403 | 75 | 192 | 3.0 | 12.0 | 0.34 | 0.79 | 0.35 | 91 | 1013.7 |
| 20260507142632 | 76 | 195 | 2.0 | 12.0 | 0.21 | 0.66 | 0.22 | 90 | 1013.7 |
| 20260507142130 | 76 | 309 | 1.0 | 5.0 | 0.03 | 0.48 | 0.03 | 90 | 1013.7 |
| 20260507141630 | 77 | 340 | 1.0 | 4.0 | 0.01 | 0.46 | 0.01 | 90 | 1013.3 |
| 20260507141130 | 77 | 229 | 1.0 | 4.0 | 0.00 | 0.45 | 0.00 | 89 | 1012.9 |
| 20260507140858 | 77 | 222 | 2.0 | 10.0 | 0.00 | 0.45 | 0.00 | 89 | 1012.8 |
| 20260507140127 | 77 | 218 | 3.0 | 10.0 | 0.00 | 0.45 | 0.00 | 89 | 1012.4 |
| 20260507135858 | 78 | 200 | 3.0 | 8.0 | 0.00 | 0.45 | 0.00 | 89 | 1012.3 |
| 20260507135125 | 77 | 213 | 3.0 | 10.0 | 0.00 | 0.45 | 0.00 | 89 | 1012.5 |
| 20260507134625 | 77 | 200 | 3.0 | 10.0 | 0.00 | 0.45 | 0.00 | 89 | 1012.6 |
| 20260507134124 | 77 | 240 | 3.0 | 8.0 | 0.00 | 0.45 | 0.00 | 90 | 1012.5 |
| 20260507133623 | 77 | 269 | 3.0 | 8.0 | 0.00 | 0.45 | 0.00 | 90 | 1012.5 |
| 20260507133124 | 77 | 171 | 3.0 | 11.0 | 0.00 | 0.45 | 0.00 | 90 | 1012.6 |
| 20260507132621 | 77 | 184 | 3.0 | 11.0 | 0.00 | 0.45 | 0.00 | 90 | 1012.7 |
| 20260507132121 | 77 | 222 | 3.0 | 10.0 | 0.00 | 0.45 | 0.00 | 90 | 1012.7 |
| 20260507131620 | 77 | 214 | 2.0 | 8.0 | 0.00 | 0.45 | 0.00 | 90 | 1012.7 |
| 20260507131120 | 77 | 263 | 2.0 | 10.0 | 0.00 | 0.45 | 0.00 | 90 | 1012.6 |
| 20260507130620 | 77 | 179 | 3.0 | 11.0 | 0.00 | 0.45 | 0.00 | 90 | 1012.5 |
| 20260507130119 | 77 | 237 | 4.0 | 11.0 | 0.00 | 0.45 | 0.00 | 90 | 1012.4 |
| 20260507125620 | 77 | 210 | 3.0 | 11.0 | 0.00 | 0.45 | 0.00 | 90 | 1012.5 |
| 20260507125120 | 77 | 196 | 3.0 | 11.0 | 0.00 | 0.45 | 0.00 | 91 | 1012.5 |
| 20260507124620 | 77 | 214 | 4.0 | 10.0 | 0.00 | 0.45 | 0.00 | 91 | 1012.4 |
| 20260507124120 | 77 | 235 | 3.0 | 10.0 | 0.00 | 0.45 | 0.00 | 91 | 1012.4 |
| 20260507123619 | 77 | 198 | 3.0 | 10.0 | 0.00 | 0.45 | 0.00 | 91 | 1012.4 |
| 20260507123119 | 0 | 202 | 3.0 | 2.0 | 0.00 | 0.45 | 0.00 | 1012.4 | |
| 20260507122614 | 0 | 0.0 | 0.0 | 0.00 | 0.45 | 0.00 | 1012.4 | ||
| 20260507122111 | 0 | 0.0 | 0.0 | 0.00 | 0.45 | 0.00 | 1012.3 | ||
| 20260507121612 | 0 | 0.0 | 0.0 | 0.00 | 0.45 | 0.00 | 1012.3 | ||
| 20260507121112 | 0 | 0.0 | 0.0 | 0.00 | 0.45 | 0.00 | 1012.2 | ||
| 20260507120612 | 0 | 0.0 | 0.0 | 0.00 | 0.45 | 0.00 | 1012.0 | ||
| 20260507120109 | 0 | 0.0 | 0.0 | 0.00 | 0.45 | 0.00 | 1011.9 | ||
| 20260507115604 | 0 | 0.0 | 0.0 | 0.00 | 0.45 | 0.00 | 1011.9 | ||
| 20260507115013 | 0 | 0.0 | 0.0 | 0.00 | 0.45 | 0.00 | 1012.0 | ||
| 20260507114511 | 0 | 0.0 | 0.0 | 0.00 | 0.45 | 0.00 | 1012.2 | ||
| 20260507114240 | 0 | 0.0 | 0.0 | 0.00 | 0.45 | 0.00 | 1012.0 | ||
| 20260507113457 | 0 | 0.0 | 0.0 | 0.00 | 0.45 | 0.00 | 1012.0 | ||
| 20260507112918 | 0 | 0.0 | 0.0 | 0.00 | 0.45 | 0.00 | 1012.0 | ||
| 20260507112418 | 0 | 0.0 | 0.0 | 0.00 | 0.45 | 0.00 | 1012.0 | ||
| 20260507111914 | 0 | 0.0 | 0.0 | 0.00 | 0.45 | 0.00 | 1011.8 | ||
| 20260507111644 | 0 | 0.0 | 0.0 | 0.00 | 0.45 | 0.00 | 1011.6 | ||
| 20260507110902 | 0 | 0.0 | 0.0 | 0.00 | 0.45 | 0.00 | 1011.6 | ||
| 20260507110316 | 0 | 0.0 | 0.0 | 0.00 | 0.45 | 0.00 | 1011.7 | ||
| 20260507110048 | 0 | 0.0 | 0.0 | 0.00 | 0.45 | 0.00 | 1011.7 | ||
| 20260507105316 | 0 | 0.0 | 0.0 | 0.00 | 0.45 | 0.00 | 1011.4 | ||
| 20260507104813 | 0 | 0.0 | 0.0 | 0.00 | 0.45 | 0.00 | 1011.2 | ||
| 20260507104542 | 0 | 0.0 | 0.0 | 0.00 | 0.45 | 0.00 | 1011.2 | ||
| 20260507103715 | 0 | 0.0 | 0.0 | 0.00 | 0.45 | 0.00 | 1011.1 | ||
| 20260507103216 | 0 | 0.0 | 0.0 | 0.00 | 0.45 | 0.00 | 1011.1 | ||
| 20260507102716 | 0 | 0.0 | 0.0 | 0.00 | 0.45 | 0.00 | 1011.1 | ||
| 20260507102215 | 0 | 0.0 | 0.0 | 0.00 | 0.45 | 0.00 | 1011.2 | ||
| 20260507101707 | 0 | 0.0 | 12.0 | 0.00 | 0.45 | 0.00 | 1011.0 | ||
| 20260507101204 | 77 | 219 | 3.0 | 12.0 | 0.00 | 0.45 | 0.00 | 92 | 1011.1 |
| 20260507100632 | 77 | 219 | 3.0 | 12.0 | 0.00 | 0.45 | 0.00 | 92 | 1011.1 |
| 20260507100132 | 77 | 219 | 3.0 | 12.0 | 0.00 | 0.45 | 0.00 | 92 | 1011.1 |
| 20260507095902 | 76 | 253 | 3.0 | 12.0 | 0.00 | 0.45 | 0.00 | 93 | 1011.1 |
| 20260507095132 | 76 | 211 | 3.0 | 12.0 | 0.00 | 0.45 | 0.00 | 93 | 1011.2 |
| 20260507094632 | 76 | 243 | 3.0 | 11.0 | 0.00 | 0.45 | 0.00 | 93 | 1011.1 |
| 20260507094131 | 76 | 200 | 3.0 | 11.0 | 0.00 | 0.45 | 0.00 | 93 | 1011.2 |
| 20260507093632 | 76 | 276 | 4.0 | 11.0 | 0.00 | 0.45 | 0.00 | 93 | 1011.2 |
| 20260507093403 | 76 | 187 | 4.0 | 11.0 | 0.00 | 0.45 | 0.00 | 93 | 1011.3 |
| 20260507092632 | 76 | 282 | 4.0 | 12.0 | 0.00 | 0.45 | 0.00 | 93 | 1011.2 |
| 20260507092131 | 76 | 193 | 4.0 | 12.0 | 0.00 | 0.45 | 0.00 | 93 | 1011.2 |
| 20260507091631 | 76 | 261 | 4.0 | 11.0 | 0.00 | 0.45 | 0.00 | 93 | 1011.1 |
| 20260507091132 | 76 | 226 | 3.0 | 10.0 | 0.00 | 0.45 | 0.00 | 93 | 1011.0 |